Tracking 20942 objects as of 15-Jul-2020
HD Live streaming from Space Station
objects crossing your sky now

AMOS 2

Track AMOS 2 now!
AMOS 2 is classified as:


NORAD ID: 28132
Int'l Code: 2003-059A
Perigee: 36,021.0 km
Apogee: 36,057.8 km
Inclination: 3.2 °
Period: 1,448.7 minutes
Semi major axis: 42410 km
RCS: 36.2156 m2 (large)
Launch date: December 27, 2003
Source: Israel (ISRA)
Launch site: TYURATAM MISSILE AND SPACE COMPLEX (TTMTR)

Ku-band communications, Europe, Middle East, East Coast of USA.
aabbcc
Your satellite tracking list
Your tracking list is empty




NASA's NSSDC Master Catalog

Two Line Element Set (TLE):
1 28132U 03059A   20196.79637566 -.00000125 +00000-0 +00000-0 0  9999
2 28132 003.2298 083.7412 0004337 013.9751 299.6920 00.99401949060536
Source of the keplerian elements: AFSPC